Temp
42 44 44 44 44 46 45 46 41 42 46 50 53 56 58 59 56 57 58 58 57 56 58 58 59 59 59 58 57 58 58 58 58 58 59 56 55 57 58 58 59 57 54 53
36 43 44 41 44 46 46 46 47 46 46 55 57 55 55 57 58 57 59 60 59 58 56 57 58 59 59 58 57 57 57 57 59 58 59 57 56 57 59 57 56 53 50 49
31 40 40 33 40 43 46 49 48 43 48 55 54 55 56 57 57 57 58 60 59 61 60 59 59 58 58 59 58 57 57 57 58 58 57 57 57 54 53 52 50 49 47 46
29 33 25 41 48 50 45 48 52 52 52 57 57 58 57 57 58 58 58 60 60 62 59 57 53 53 54 55 57 57 56 57 58 57 55 51 50 50 50 49 48 47 46 45
25 28 35 40 48 48 43 44 51 50 54 56 58 52 54 57 57 58 58 60 59 61 61 56 53 53 54 54 54 56 57 55 54 54 50 49 48 47 46 46 45 44 44 44
31 25 23 37 49 53 51 38 51 51 51 53 53 45 49 59 55 57 55 55 56 55 51 52 52 54 53 53 54 54 53 52 51 50 48 48 47 45 46 45 43 41 40 41
31 29 33 42 48 52 33 37 45 50 49 49 49 52 54 53 55 54 53 53 51 51 51 52 54 55 53 52 52 52 51 50 50 49 48 48 45 44 43 40 37 35 34 35
32 29 26 47 46 41 44 46 47 51 49 48 49 50 52 53 52 53 52 52 51 49 48 50 52 53 51 51 50 51 50 48 48 48 46 45 42 41 39 36 34 33 32 30
33 33 44 46 46 50 50 52 50 51 53 51 50 49 50 50 51 50 50 49 50 48 48 49 50 50 50 47 49 48 47 46 44 44 42 42 39 37 36 35 33 32 31 28
36 41 44 48 48 51 51 51 54 56 55 56 53 52 50 50 51 50 50 49 48 47 46 46 47 46 46 45 47 47 44 42 41 39 38 38 38 37 35 33 32 31 30 28
39 43 44 47 48 51 52 54 54 56 56 54 53 53 53 50 50 51 51 48 47 46 44 43 44 44 45 45 45 42 41 39 37 35 34 32 31 33 33 33 34 32 30 29
32 38 39 40 44 46 46 48 52 53 53 54 51 51 53 55 50 50 48 47 46 44 44 43 43 43 43 44 43 39 35 36 34 33 32 32 31 29 32 32 32 32 31 29
40 40 40 41 44 44 43 47 46 44 42 42 43 45 47 47 44 41 42 40 39 38 38 38 37 36 39 38 38 36 34 34 33 32 32 30 30 29 25 28 30 30 30 29
43 40 39 41 40 42 42 44 43 40 38 36 36 38 36 34 34 33 33 35 35 34 33 32 31 31 34 35 34 32 31 31 30 29 28 27 26 26 26 25 23 24 28 28
38 40 41 42 41 38 39 38 36 33 33 31 31 29 29 27 27 28 30 30 30 30 30 30 29 29 32 32 31 30 30 29 28 28 28 28 27 26 26 25 24 24 25 26
36 38 39 38 37 34 33 32 30 28 29 28 28 27 27 27 27 27 28 29 27 26 27 27 28 30 32 31 30 29 28 28 28 27 27 26 26 26 26 25 25 24 23 22
32 33 32 32 33 31 29 30 29 28 26 26 26 27 26 26 25 25 24 25 24 23 25 25 25 27 28 28 27 26 25 25 24 24 23 23 23 22 22 22 21 19 18 20
32 31 31 31 30 29 28 28 28 27 26 25 25 23 21 21 21 21 21 22 21 21 22 23 23 24 24 24 24 23 22 22 21 21 21 20 20 20 19 19 18 17 17 18
28 27 28 28 27 27 26 25 25 24 23 22 21 19 19 18 19 19 19 18 18 17 18 21 23 21 21 22 22 21 20 19 19 19 19 18 17 17 16 16 15 15 15 15
26 26 25 25 25 25 23 23 23 22 22 21 19 18 16 16 17 17 17 15 17 18 20 20 20 19 19 19 20 19 18 17 17 16 15 14 13 12 13 13 13 11 10 10
22 22 22 22 21 21 21 21 20 18 18 18 16 15 14 16 16 17 15 14 16 18 18 18 18 17 18 18 17 16 15 14 13 11 10 9 8 7 6 5 5 4 0 -1
21 20 20 20 19 19 20 20 20 19 19 17 17 16 15 14 14 14 15 14 16 16 16 15 15 14 14 15 14 12 11 10 8 7 6 5 2 -1 -3 -3 -5 -4 -7 -6
21 21 21 19 19 19 19 19 18 18 17 16 15 14 14 15 15 13 10 14 14 13 13 11 11 10 10 9 8 6 5 4 3 1 -1 -4 -7 -10 -10 -11 -12 -13 -12 -10
20 21 20 20 20 19 16 17 18 18 17 17 16 16 15 12 12 14 13 10 9 9 8 7 7 6 5 5 4 2 0 -3 -5 -8 -7 -13 -18 -16 -15 -18 -16 -19 -18 -17
18 18 18 18 17 16 17 17 16 15 15 14 14 15 15 15 11 10 9 8 8 6 4 2 1 -1 -2 -4 -4 -6 -8 -11 -15 -16 -20 -21 -22 -23 -23 -22 -23 -23 -23 -23
16 15 15 15 15 15 15 14 11 12 12 9 8 8 7 8 7 6 4 3 2 -0 -3 -8 -10 -10 -10 -10 -13 -15 -15 -12 -16 -17 -21 -22 -22 -21 -24 -22 -25 -25 -27 -25
14 15 14 12 12 11 10 9 6 5 4 3 4 5 3 0 -1 -1 -6 -7 -9 -10 -14 -15 -14 -12 -13 -17 -16 -19 -18 -19 -21 -21 -26 -25 -25 -27 -27 -28 -29 -29 -29 -29
MSLP
1007.50 1007.17 1006.25 1005.35 1004.67 1004.05 1003.82 1003.38 1003.14 1002.29 1001.76 1001.58 1001.13 1000.57 1000.25 1000.08 1000.23 1000.65 1000.71 1001.06 1000.81 1001.10 1001.20 1001.70 1002.39 1003.09 1003.45 1004.04 1004.66 1005.41 1006.07 1006.55 1006.58 1006.96 1007.70 1008.54 1009.21 1009.65 1010.21 1010.71 1010.92 1011.62 1012.27 1012.87
1007.72 1007.24 1006.69 1005.45 1004.54 1004.06 1003.19 1002.71 1002.20 1001.84 1000.99 1000.55 1000.00 999.96 1000.13 999.92 999.81 999.96 1000.02 999.91 1000.02 1000.22 1000.70 1000.78 1001.30 1001.78 1002.46 1002.91 1003.55 1004.40 1005.10 1005.27 1006.04 1006.75 1007.10 1007.65 1008.27 1008.85 1009.42 1009.94 1010.41 1011.17 1011.79 1012.32
1007.94 1007.41 1006.83 1005.45 1004.08 1003.53 1002.97 1002.14 1001.58 1001.02 1000.51 999.87 999.71 999.40 999.31 999.00 999.08 999.29 999.11 999.19 999.42 999.36 999.40 999.65 1000.11 1000.49 1001.33 1001.71 1002.69 1003.37 1003.94 1004.68 1005.37 1005.98 1006.45 1007.25 1007.81 1008.47 1009.19 1009.79 1010.35 1010.98 1011.63 1012.14
1008.77 1008.07 1006.72 1004.27 1003.30 1002.53 1002.47 1001.95 1001.30 1000.66 1000.04 999.38 999.01 998.51 998.57 998.51 998.55 998.25 998.16 998.28 998.22 998.31 998.58 998.68 999.27 1000.00 1000.61 1001.36 1002.05 1002.60 1003.40 1004.19 1004.76 1005.38 1006.18 1006.89 1007.65 1008.38 1009.10 1009.69 1010.32 1010.97 1011.68 1012.26
1009.24 1008.11 1005.89 1004.04 1002.91 1002.13 1002.02 1001.52 1001.06 1000.57 999.88 999.36 998.63 998.50 998.31 997.81 997.81 997.50 997.31 997.23 997.37 997.49 997.32 997.82 998.70 999.58 1000.39 1001.39 1001.92 1002.39 1002.86 1003.68 1004.47 1005.15 1006.09 1006.75 1007.43 1008.16 1008.99 1009.75 1010.46 1011.23 1011.82 1012.36
1009.07 1008.33 1006.21 1003.74 1002.65 1002.17 1001.92 1000.93 1001.04 1000.72 1000.17 999.56 998.98 998.64 998.17 997.30 997.57 997.12 996.97 997.02 997.10 997.27 997.85 998.00 998.47 999.20 1000.33 1001.45 1001.88 1002.35 1002.95 1003.68 1004.52 1005.22 1006.04 1006.88 1007.60 1008.32 1008.96 1009.71 1010.46 1011.22 1012.07 1012.76
1008.57 1007.90 1005.72 1003.82 1003.01 1002.06 1002.85 1002.10 1001.61 1001.45 1000.49 1000.29 999.69 998.85 997.99 997.59 997.06 997.17 996.74 996.71 996.97 997.53 997.94 998.31 998.64 999.07 1000.11 1001.21 1002.01 1002.59 1003.47 1004.27 1005.10 1005.68 1006.30 1007.00 1007.86 1008.64 1009.40 1010.28 1011.08 1011.97 1012.81 1013.68
1008.14 1007.52 1005.51 1003.01 1002.82 1002.48 1002.72 1002.23 1001.58 1000.71 1000.50 1000.56 1000.10 999.45 998.66 998.12 998.12 996.91 997.11 997.42 997.27 998.23 998.98 998.78 999.04 999.59 1000.34 1001.38 1002.18 1002.97 1003.87 1004.79 1005.54 1006.16 1006.76 1007.43 1008.10 1009.11 1010.01 1010.83 1011.73 1012.60 1013.55 1014.54
1007.04 1005.18 1003.69 1002.96 1002.66 1002.31 1002.11 1001.76 1000.60 1000.48 999.80 1000.67 1000.20 999.83 999.37 998.84 998.30 998.11 997.96 998.40 998.22 998.32 999.78 1000.30 1000.22 1000.16 1000.69 1001.96 1002.50 1003.32 1004.19 1005.14 1005.99 1006.75 1007.44 1008.02 1008.67 1009.51 1010.55 1011.34 1012.03 1012.91 1013.79 1015.09
1006.07 1004.15 1003.55 1002.57 1002.53 1002.57 1002.04 1001.38 1000.47 999.98 1000.04 1000.03 1000.20 999.48 999.14 999.05 998.83 998.69 998.57 998.63 998.54 999.60 1000.22 1000.52 1001.65 1001.51 1001.70 1002.41 1003.01 1003.81 1004.72 1005.71 1006.67 1007.40 1008.26 1008.94 1009.53 1010.14 1010.80 1011.55 1012.34 1013.30 1014.41 1015.59
1005.18 1004.80 1004.10 1003.30 1003.17 1002.97 1002.18 1001.32 1000.53 1000.24 999.99 999.94 999.76 999.18 998.94 998.96 999.02 998.93 999.35 999.41 999.53 1000.10 1001.03 1001.28 1001.81 1002.07 1002.33 1003.13 1003.87 1004.60 1005.70 1006.77 1007.66 1008.48 1009.06 1009.90 1010.67 1011.10 1011.55 1012.09 1012.33 1013.12 1014.32 1015.34
1005.90 1006.15 1006.02 1004.95 1004.63 1004.09 1003.05 1002.15 1000.86 1000.50 1000.29 999.84 1000.05 1000.20 999.64 998.90 999.89 999.40 1000.14 1000.57 999.96 1001.21 1001.75 1001.99 1002.71 1003.05 1003.41 1003.86 1004.50 1004.74 1006.49 1007.42 1008.09 1009.01 1010.03 1010.68 1011.34 1012.25 1012.79 1013.00 1013.51 1014.16 1015.04 1015.92
1006.72 1006.68 1006.31 1005.57 1005.09 1004.64 1003.87 1003.15 1002.25 1002.11 1002.01 1002.03 1001.87 1001.53 1001.48 1001.09 1001.62 1001.21 1000.81 1001.24 1002.45 1003.61 1003.66 1003.95 1003.43 1004.64 1004.66 1004.70 1005.45 1006.03 1007.05 1008.13 1008.98 1009.55 1010.67 1011.67 1012.29 1012.71 1013.62 1014.69 1014.96 1015.54 1016.20 1017.05
1007.44 1007.19 1006.36 1006.09 1005.88 1005.51 1004.92 1004.89 1004.52 1004.28 1004.24 1003.95 1003.87 1003.33 1002.95 1003.24 1003.44 1003.80 1003.72 1003.88 1003.87 1004.78 1005.39 1005.61 1006.05 1006.95 1006.31 1006.09 1006.77 1007.52 1008.47 1009.13 1009.76 1010.34 1011.42 1012.16 1013.31 1014.16 1014.75 1015.25 1015.93 1016.73 1017.38 1017.97
1008.12 1007.90 1007.36 1006.81 1006.76 1006.75 1006.17 1006.64 1005.94 1005.98 1005.88 1005.33 1005.58 1005.59 1005.71 1005.94 1006.12 1006.42 1006.48 1006.30 1006.46 1006.65 1007.25 1007.21 1007.07 1007.79 1008.43 1008.23 1008.43 1008.94 1009.84 1010.78 1011.38 1012.11 1012.60 1013.52 1014.36 1015.18 1015.81 1016.42 1017.06 1017.74 1018.37 1019.00
1008.62 1008.15 1007.62 1007.03 1007.65 1007.49 1007.41 1007.73 1007.69 1007.35 1007.59 1007.46 1007.54 1007.76 1007.87 1007.92 1008.17 1008.30 1008.26 1008.31 1007.98 1008.78 1009.31 1009.15 1009.21 1009.79 1009.48 1009.86 1009.95 1010.55 1011.51 1012.22 1012.55 1013.37 1014.18 1014.88 1015.63 1016.16 1016.80 1017.41 1017.97 1018.63 1019.25 1019.92
1009.63 1008.92 1008.56 1008.56 1008.80 1008.73 1008.89 1009.04 1009.06 1009.20 1009.44 1009.56 1009.46 1009.20 1009.39 1009.66 1009.81 1010.30 1010.47 1010.81 1010.64 1010.75 1011.21 1011.33 1011.51 1011.34 1011.41 1011.41 1011.73 1012.43 1013.10 1013.89 1014.37 1015.11 1015.86 1016.53 1017.12 1017.67 1018.21 1018.69 1019.28 1019.89 1020.45 1020.80
1011.15 1010.85 1010.48 1010.20 1009.92 1009.68 1009.97 1010.28 1010.61 1010.84 1010.79 1010.66 1010.49 1010.90 1010.79 1011.59 1012.08 1012.92 1012.89 1012.81 1012.90 1012.99 1013.17 1013.29 1013.20 1013.19 1013.26 1013.45 1013.88 1014.34 1014.85 1015.52 1016.18 1016.95 1017.65 1018.14 1018.65 1019.14 1019.61 1020.09 1020.55 1020.97 1021.41 1021.76
1012.28 1012.18 1011.84 1011.48 1011.39 1011.27 1011.60 1011.86 1012.10 1011.97 1012.00 1012.06 1012.30 1012.72 1012.48 1013.27 1014.59 1014.92 1014.83 1014.22 1014.74 1014.78 1015.67 1015.39 1015.02 1015.02 1015.31 1015.73 1015.83 1016.24 1016.77 1017.42 1018.05 1018.59 1019.10 1019.62 1020.10 1020.59 1021.02 1021.36 1021.74 1022.08 1022.37 1022.70
1013.65 1013.45 1013.25 1013.05 1012.81 1012.72 1012.82 1013.19 1013.46 1013.45 1013.87 1013.89 1014.05 1014.63 1014.90 1014.72 1016.05 1016.48 1016.33 1016.10 1016.94 1017.14 1017.13 1017.03 1017.09 1017.32 1017.43 1017.57 1017.56 1017.90 1018.34 1018.90 1019.49 1020.02 1020.47 1021.04 1021.61 1022.09 1022.47 1022.76 1023.07 1023.38 1023.62 1023.85
1014.97 1014.86 1014.68 1014.41 1014.40 1014.39 1014.45 1015.02 1015.10 1015.16 1015.55 1015.79 1015.91 1016.21 1016.97 1016.76 1016.75 1017.97 1017.93 1017.84 1018.85 1018.61 1018.98 1019.03 1019.33 1019.23 1019.08 1019.14 1019.29 1019.62 1019.96 1020.57 1021.22 1021.72 1022.22 1022.82 1023.33 1023.82 1024.17 1024.44 1024.60 1024.77 1025.00 1025.00
1016.28 1016.10 1015.97 1015.99 1015.98 1016.16 1016.57 1016.54 1016.47 1016.70 1017.02 1017.48 1017.63 1017.96 1018.06 1018.12 1018.07 1019.31 1020.18 1020.29 1020.72 1020.45 1020.90 1021.09 1020.91 1020.83 1020.72 1020.72 1021.01 1021.38 1021.88 1022.51 1023.07 1023.46 1023.97 1024.50 1024.98 1025.49 1025.90 1026.07 1026.23 1026.17 1026.17 1026.13
1017.46 1017.48 1017.43 1017.53 1017.71 1018.00 1018.03 1018.05 1018.28 1018.51 1018.94 1019.33 1019.54 1019.65 1019.31 1019.29 1020.16 1021.31 1021.88 1022.50 1022.06 1022.02 1022.25 1022.46 1022.34 1022.18 1022.29 1022.60 1023.05 1023.51 1023.91 1024.31 1024.80 1025.27 1025.70 1026.01 1026.39 1026.78 1027.07 1027.27 1027.32 1027.20 1027.17 1027.11
1018.85 1018.81 1019.01 1019.16 1019.20 1019.16 1019.25 1019.84 1019.88 1020.32 1020.64 1020.93 1021.10 1021.11 1021.21 1021.65 1022.54 1023.26 1023.61 1023.67 1023.71 1023.74 1023.83 1023.87 1023.95 1023.90 1024.02 1024.53 1025.02 1025.40 1025.73 1026.05 1026.36 1026.64 1026.95 1027.17 1027.44 1027.70 1027.89 1028.02 1028.04 1027.96 1027.81 1027.62
1020.43 1020.44 1020.37 1020.30 1020.26 1020.73 1021.20 1021.47 1021.73 1022.23 1022.43 1022.70 1022.93 1023.12 1023.37 1023.75 1024.04 1024.89 1025.00 1025.18 1025.14 1025.46 1025.62 1025.48 1025.43 1025.49 1025.75 1026.20 1026.62 1026.94 1027.16 1027.29 1027.53 1027.75 1027.99 1028.19 1028.42 1028.58 1028.68 1028.73 1028.70 1028.61 1028.42 1028.18
1021.74 1021.84 1022.06 1022.18 1022.27 1022.62 1022.87 1023.19 1023.67 1024.10 1024.28 1024.56 1025.00 1025.37 1025.70 1025.95 1026.14 1026.31 1026.60 1026.81 1026.99 1027.03 1027.07 1026.99 1026.96 1027.02 1027.34 1027.80 1028.02 1028.17 1028.27 1028.37 1028.50 1028.68 1028.91 1029.08 1029.26 1029.37 1029.38 1029.33 1029.25 1029.11 1028.83 1028.34
1023.17 1023.30 1023.57 1023.84 1024.17 1024.49 1024.78 1025.15 1025.45 1025.97 1026.18 1026.37 1026.72 1027.15 1027.39 1027.57 1027.69 1027.85 1028.07 1028.23 1028.26 1028.27 1028.29 1028.35 1028.36 1028.59 1028.93 1029.03 1029.07 1029.21 1029.07 1029.16 1029.23 1029.37 1029.65 1029.74 1029.59 1029.66 1029.54 1029.35 1029.16 1028.92 1028.62 1028.36
Wind_Speed
2 7 10 12 13 13 12 12 13 3 11 10 11 12 14 10 6 8 9 8 8 10 12 11 11 12 13 14 16 16 17 17 18 16 14 8 9 11 13 15 12 12 10 7
3 4 10 17 12 11 11 6 11 9 13 7 10 7 7 10 9 8 9 9 9 8 7 11 13 14 13 14 16 16 17 19 15 13 13 11 10 12 13 12 11 10 10 9
5 2 3 10 4 3 8 8 7 11 9 7 7 8 10 11 9 11 11 10 9 12 15 14 15 13 15 15 13 17 17 15 14 13 13 11 7 9 9 10 8 8 7 9
2 2 3 7 5 6 6 12 11 11 6 8 10 9 8 7 9 10 10 12 12 12 10 9 8 8 7 8 13 14 14 13 12 11 8 7 8 9 8 7 8 8 8 9
2 3 7 5 6 4 7 18 8 9 14 10 8 1 7 9 10 12 10 10 9 9 9 7 10 10 10 8 9 10 12 11 11 12 9 9 9 10 9 9 8 8 8 10
4 3 7 5 4 6 1 15 7 10 14 13 6 7 5 10 4 7 9 8 8 5 2 8 11 13 12 9 10 11 10 10 9 9 9 9 8 9 7 8 9 8 9 8
3 2 9 7 5 4 4 8 10 12 8 12 8 6 4 7 7 6 4 4 3 4 6 6 10 13 11 10 9 7 8 9 8 8 8 9 9 7 8 10 10 10 11 9
4 3 9 6 0 3 5 5 4 10 5 8 7 10 9 9 9 9 8 5 5 5 3 8 13 12 11 10 9 11 10 9 8 8 7 8 11 9 10 10 11 11 11 9
9 9 5 2 1 5 6 4 4 5 12 9 8 5 5 8 11 7 5 3 5 8 6 3 4 7 13 9 11 11 11 10 10 9 8 8 10 10 9 9 8 8 8 8
1 3 10 9 3 6 9 11 10 12 15 13 10 8 6 5 5 6 4 3 4 7 5 6 4 5 9 9 10 11 11 10 9 10 9 8 6 6 7 8 8 8 8 8
11 7 8 7 6 13 17 15 15 13 17 9 9 7 4 3 4 4 3 2 4 7 5 7 6 8 9 10 10 11 11 10 9 7 9 9 9 5 5 5 5 8 7 8
5 3 5 7 9 19 15 16 10 11 10 4 4 8 9 6 4 2 3 4 7 7 6 8 8 7 8 8 9 13 10 8 8 8 7 7 8 10 18 14 17 17 15 10
6 10 12 13 10 14 12 16 13 12 11 8 11 7 6 7 10 9 9 13 13 10 10 10 12 9 7 8 8 8 9 9 7 8 8 7 6 8 12 16 22 20 21 20
8 12 4 9 8 13 13 13 11 11 11 12 12 12 13 13 14 15 15 12 12 14 13 14 15 13 11 11 13 14 13 13 9 9 9 9 9 8 7 8 8 8 14 14
10 10 7 6 8 10 12 12 11 12 11 13 13 14 13 14 14 13 12 14 15 16 14 13 15 15 11 13 15 15 12 10 10 10 10 10 8 7 7 7 7 6 6 6
13 11 7 10 10 12 13 13 11 12 12 12 12 14 14 15 15 16 17 15 16 15 14 15 15 12 13 13 16 14 13 16 13 9 8 8 7 7 6 6 5 5 4 4
10 7 10 8 8 9 11 10 10 10 10 11 13 12 14 15 17 17 17 16 17 17 15 14 14 13 14 14 14 10 10 11 15 11 9 8 8 8 7 7 6 6 5 5
8 6 7 6 6 8 10 10 9 10 11 13 15 14 17 16 16 14 13 14 17 18 17 15 15 15 16 15 14 11 11 11 10 10 8 9 8 7 7 7 6 6 5 5
10 8 8 9 8 10 10 10 10 11 11 13 15 16 17 17 15 13 13 17 17 16 14 15 20 18 16 16 13 10 11 11 10 9 9 10 8 7 7 6 6 6 5 5
10 10 11 13 13 12 13 12 12 13 12 13 15 15 17 16 14 14 15 19 14 10 12 14 15 14 14 15 14 10 11 11 10 9 8 8 8 7 7 8 6 6 5 4
10 11 12 13 13 14 13 11 12 14 14 14 15 16 15 14 14 12 14 13 12 13 14 16 12 9 10 11 11 10 10 10 9 8 8 7 7 7 6 6 5 4 3 3
10 11 13 13 14 15 13 12 13 13 14 14 14 14 15 16 17 16 14 12 8 14 10 9 9 14 11 14 9 10 10 9 8 7 7 6 6 5 4 4 4 4 4 3
11 12 13 13 13 13 14 14 14 14 14 13 13 12 13 11 9 8 9 10 9 12 9 9 13 15 15 10 9 9 9 8 7 6 5 5 4 4 3 4 3 3 3 3
10 12 12 11 12 13 16 13 14 14 13 14 13 11 10 9 10 8 9 12 13 12 10 10 11 13 11 7 7 7 6 5 5 4 4 5 4 3 4 3 3 2 3 3
10 10 11 11 12 9 11 11 11 11 12 13 13 12 13 9 7 6 7 8 13 10 8 11 11 10 6 6 6 5 4 4 3 4 3 3 3 3 3 3 2 3 3 3
10 8 8 11 9 7 7 8 7 6 7 8 8 7 8 7 7 7 7 8 8 8 6 5 5 5 5 5 4 4 3 4 4 4 3 3 3 2 2 3 3 3 3 4
9 9 7 8 8 8 7 7 6 6 6 5 8 6 6 6 6 6 6 5 5 5 4 4 4 5 3 3 3 3 3 3 4 3 2 2 2 2 3 3 3 3 3 3
Wind_Direction
303 294 310 274 275 264 240 244 229 234 232 220 232 238 238 236 254 213 241 234 221 208 202 198 197 198 201 194 192 191 199 206 211 211 219 200 183 189 194 205 212 209 198 187
217 30 352 314 299 277 260 253 258 258 263 217 243 249 275 252 247 248 234 250 221 232 222 199 196 201 196 192 193 187 200 213 212 216 217 211 194 193 201 205 199 181 182 171
247 181 352 313 150 260 289 254 232 246 220 246 255 233 238 247 232 231 234 232 232 217 211 206 203 192 197 196 174 188 198 206 206 207 214 209 196 173 186 186 170 171 160 156
228 251 204 236 237 273 267 275 282 280 236 221 227 245 247 244 236 244 230 239 224 218 223 208 165 168 159 162 179 181 191 200 200 191 191 146 148 162 162 159 165 167 163 155
188 221 303 288 247 224 122 293 292 279 276 252 261 267 278 241 222 231 240 243 243 237 228 167 156 143 139 154 163 173 185 182 184 179 163 155 157 151 151 150 150 150 147 144
151 232 234 228 360 3 320 279 4 3 331 266 192 234 241 263 273 259 243 244 250 212 172 153 151 141 145 161 165 180 174 172 157 145 148 160 153 153 151 144 133 120 109 114
186 266 278 243 245 174 163 283 324 327 348 337 277 279 272 316 311 281 310 307 137 166 179 171 153 149 152 157 177 150 134 132 141 150 151 150 137 133 130 121 108 102 98 92
179 209 268 208 288 138 212 284 265 319 312 315 323 329 339 326 296 354 347 354 98 108 126 153 159 157 149 153 129 125 127 128 134 136 128 129 124 116 117 117 116 118 111 93
188 211 239 222 206 224 203 229 256 265 285 274 295 290 328 338 343 356 31 66 36 95 86 50 113 146 141 132 126 122 121 121 116 111 112 118 122 121 118 122 124 121 116 111
201 250 267 303 254 211 227 238 250 252 258 265 257 288 321 352 2 355 356 22 93 87 100 87 79 81 114 123 124 123 114 109 107 107 103 97 99 113 123 128 122 121 121 121
264 303 316 287 329 343 325 266 256 260 253 242 250 265 240 287 347 349 303 141 117 113 143 117 96 107 116 120 119 107 104 106 102 98 98 89 68 70 93 69 123 139 138 137
246 53 296 277 325 313 312 310 281 263 267 327 350 318 320 325 35 62 51 332 68 72 91 107 89 78 98 116 126 121 118 122 120 114 104 105 105 85 63 82 83 89 98 102
301 327 283 275 286 360 339 348 9 37 31 15 356 344 337 27 23 37 54 72 59 56 53 39 80 57 61 77 94 94 110 112 101 101 97 92 94 100 103 76 82 91 100 107
315 333 335 8 337 345 5 346 9 31 35 34 19 29 43 50 44 43 44 49 76 74 65 64 55 40 37 72 81 80 80 84 95 96 87 90 88 83 87 89 93 91 88 109
337 324 297 334 8 3 20 354 27 23 18 36 38 43 47 54 57 54 52 61 62 61 59 71 76 64 53 73 78 81 78 82 83 77 78 89 90 90 92 94 97 107 115 110
316 309 358 25 354 14 19 16 26 34 28 37 49 54 57 63 62 59 57 54 67 64 60 62 60 59 73 78 80 77 75 77 80 79 77 77 77 83 83 87 95 102 101 105
334 338 356 360 2 28 28 20 29 41 51 59 59 65 71 70 66 59 58 57 60 60 56 56 58 55 59 64 70 73 73 68 70 66 65 65 66 66 66 69 72 74 70 72
353 10 13 7 14 43 46 48 51 55 64 74 73 70 69 60 67 59 60 64 63 59 51 53 57 59 58 59 64 67 69 69 67 68 69 68 68 68 68 71 73 77 76 68
28 30 37 51 52 66 67 67 65 68 66 74 74 70 75 71 58 61 63 61 54 57 44 50 57 59 60 61 66 69 72 74 73 72 73 72 68 65 65 66 66 60 58 60
49 54 60 62 59 66 69 61 68 69 69 76 81 75 71 73 72 68 63 65 53 55 55 54 56 57 60 58 65 68 69 71 72 69 66 68 65 61 59 59 59 59 57 57
51 58 59 61 61 61 63 67 74 71 68 69 75 73 70 69 71 63 63 64 44 51 54 53 54 55 55 59 59 61 64 65 64 62 63 64 64 58 55 51 49 43 30 32
53 56 60 63 63 61 56 62 64 69 74 75 74 78 79 72 72 65 52 63 56 58 61 55 54 52 55 57 57 60 62 63 63 64 64 65 66 64 52 45 39 27 31 42
56 60 63 63 67 72 66 60 60 64 67 64 64 65 68 64 62 73 74 49 61 60 60 55 54 54 54 55 57 60 63 65 65 64 64 62 65 70 65 57 45 40 36 27
56 62 66 69 70 65 63 55 62 62 64 64 59 57 67 75 72 66 71 65 62 60 58 56 51 51 54 55 57 61 63 64 67 66 70 69 61 61 57 49 36 353 3 360
50 51 51 55 60 60 64 63 64 57 61 62 58 58 61 55 72 71 65 60 57 59 56 48 52 50 53 55 63 65 63 64 61 71 69 80 67 52 29 16 356 330 326 317
57 56 54 50 54 56 61 65 65 57 71 70 56 48 50 53 61 64 60 59 60 58 52 34 39 48 55 59 60 56 52 50 49 52 69 59 47 34 349 335 332 328 316 312
53 52 63 59 49 52 54 58 66 56 46 63 78 57 62 59 56 67 61 54 50 46 38 29 37 51 56 53 48 39 43 52 58 83 68 55 17 323 322 311 300 298 302 305